Location: Chrome
(40.5765°N, 74.2163°W)
Time: 14:24:28
(UTC+00:00)

NOAA 12 - Pass Details

Date: 06 December 2019
Orbit: 795 x 815 km, 98.5° (Epoch: 25 January)

Event Time Altitude Azimuth Distance (km) Brightness Sun altitude
Rises 22:15:35 0° 150° (SSE) 3,324 7.2 -8.7°
Reaches altitude 10° 22:17:58 10° 145° (SE) 2,395 6.4 -9.1°
Maximum altitude 22:23:04 50° 71° (ENE) 1,031 4.3 -10.0°
Drops below altitude 10° 22:28:10 10° 358° (N) 2,400 6.4 -10.9°
Sets 22:30:34 0° 353° (N) 3,332 7.2 -11.3°
